Погода в Богородском

Россия / Орловская область     52°30′03″N   36°02′50″E
темп.,
°C
ветер,
м/с
пор.,
м/с
влажн.,
%
обл.,
%
осадки,
мм/ч
давл.,
гПа
погр.,
м
20 апреля, вт
вт2000:00+7всв599493 0.3 1016496
03:00+6всв4894100 0.4 1015359
06:00+6в51195100 0.5 1014391
09:00+7в61092100 0.8 1013738
12:00+8в61089100 0.1 1013746
15:00+8всв71087100 0.1 1010635
18:00+6всв71190100 0.0 1009661
21:00+5св61094100 0.1 1007564
21 апреля, ср
ср2100:00+4ссв5794100 0.5 1004608
03:00+3с4698100 1.1 1004446
06:00+3сз3798100 0.1 1005436
09:00+3з4697100 0.1 1007563
12:00+5з4687100 0.1 1009722
15:00+7зюз5675100 0.2 10101031
18:00+5зюз4692100 2.6 1012692
21:00+5ююз3591100 4.6 1014245
22 апреля, чт
чт2200:00+4ююз379680 0.0 1014163
03:00+4ююз4993100 0.1 1015301
06:00+3ююз489542 0.1 1016167
09:00+7ю4985100 0.1 1017378
12:00+10ююз697770 0.0 1017678
15:00+11ююз697242 0.4 10171020
18:00+12ююз597497 0.8 1016622
21:00+9ююз4108721 1.5 1017177
23 апреля, пт
пт2300:00+7ю49907 0.5 1017148
03:00+7ю5129167 1.0 1017234
06:00+7ю5148994 0.3 1016289
09:00+12ю7137353 0.3 1016758
12:00+15ю9115512 0.0 10151496
15:00+15ююз8116098 1.6 10131626
18:00+11ююз81286100 2.6 1013907
21:00+7з2392100 6.7 1014283
24 апреля, сб
сб2400:00+5зсз5695100 5.6 1013794
03:00+4зсз4796100 8.3 1014564
06:00+4зюз3593100 0.1 1014399
09:00+6з467550 0.3 1014558
12:00+9з56515 0.4 10131713
15:00+10зсз3543100 0.6 10132147
18:00+8з565699 0.2 1013584
21:00+5з4877100 0.4 1014256